Weather History for Indiana, PA

Change the Weather History Date:

Monday, September 24, 2012

  Actual Average Record
Temperature  
Mean Temperature 49 °F -  
Max Temperature 57 °F 67 °F 89 °F (1970)
Min Temperature 41 °F 46 °F 29 °F (1950)
Degree Days  
Heating Degree Days 16    
Moisture  
Dew Point 43 °F    
Average Humidity 84    
Maximum Humidity 100    
Minimum Humidity 51    
Precipitation  
Precipitation 0.00 in - - ()
Sea Level Pressure  
Sea Level Pressure 30.18 in    
Wind  
Wind Speed 2 mph (West)    
Max Wind Speed 13 mph    
Max Gust Speed 17 mph    
Visibility 10 miles    
Events      
Averages and records for this station are not official NWS values.
T = Trace of Precipitation, MM = Missing Value Source: NWS Daily Summary

Daily Weather History Graph

Daily Weather History Graph

Search for Another Location

Airport:

Trip Planner

Search our weather history database for the weather conditions in past years. The results will help you decide how hot, cold, wet, or windy it might be!

Date:

Astronomy

Sep. 24, 2012 Rise Set
Actual Time 7:06 AM EDT 7:09 PM EDT
Civil Twilight 6:39 AM EDT 7:36 PM EDT
Nautical Twilight 6:07 AM EDT 8:08 PM EDT
Astronomical Twilight 5:34 AM EDT 8:40 PM EDT
Moon 3:55 PM EDT (9/24) 1:19 AM EDT (9/24)
Length of Visible Light 12h 57m
Length of Day
12h 03m
Waxing Gibbous, 70% of the Moon is Illuminated
Sep 24
Waxing Gibbous
Sep 29
Full
Oct 8
Last Quarter
Oct 15
New
Oct 21
First Quarter

Hourly Weather History & Observations

Time (EDT) Temp. Dew Point Humidity Pressure Visibility Wind Dir Wind Speed Gust Speed Precip Events Conditions
12:15 AM 48.2 °F 48.2 °F 100% 30.19 in 10.0 mi Calm Calm - N/A   Unknown
12:35 AM 48.2 °F 48.2 °F 100% 30.19 in 10.0 mi Calm Calm - N/A   Unknown
12:55 AM 46.4 °F 46.4 °F 100% 30.18 in 10.0 mi Calm Calm - N/A   Unknown
1:15 AM 46.4 °F 46.4 °F 100% 30.18 in 10.0 mi Calm Calm - N/A   Unknown
1:35 AM 46.4 °F 46.4 °F 100% 30.19 in 10.0 mi Calm Calm - N/A   Unknown
1:55 AM 48.2 °F 48.2 °F 100% 30.19 in 10.0 mi Calm Calm - N/A   Unknown
2:15 AM 46.4 °F 46.4 °F 100% 30.18 in 10.0 mi Calm Calm - N/A   Unknown
2:35 AM 46.4 °F 46.4 °F 100% 30.18 in 10.0 mi Calm Calm - N/A   Unknown
2:55 AM 46.4 °F 46.4 °F 100% 30.18 in 10.0 mi Calm Calm - N/A   Unknown
3:35 AM 44.6 °F 44.6 °F 100% 30.19 in 7.0 mi Calm Calm - N/A   Unknown
3:55 AM 44.6 °F 44.6 °F 100% 30.19 in 10.0 mi Calm Calm - N/A   Unknown
4:15 AM 44.6 °F 44.6 °F 100% 30.19 in 10.0 mi Calm Calm - N/A   Unknown
4:35 AM 44.6 °F 44.6 °F 100% 30.19 in 10.0 mi Calm Calm - N/A   Unknown
4:55 AM 44.6 °F 44.6 °F 100% 30.19 in 10.0 mi Calm Calm - N/A   Unknown
5:15 AM 44.6 °F 44.6 °F 100% 30.20 in 10.0 mi Calm Calm - N/A   Unknown
5:35 AM 44.6 °F 44.6 °F 100% 30.20 in 10.0 mi Calm Calm - N/A   Unknown
5:55 AM 42.8 °F 42.8 °F 100% 30.20 in 10.0 mi Calm Calm - N/A   Unknown
6:15 AM 44.6 °F 44.6 °F 100% 30.20 in 10.0 mi Calm Calm - N/A   Unknown
6:35 AM 42.8 °F 42.8 °F 100% 30.21 in 10.0 mi Calm Calm - N/A   Unknown
6:55 AM 42.8 °F 42.8 °F 100% 30.21 in 7.0 mi Calm Calm - N/A   Unknown
7:15 AM 41.0 °F 41.0 °F 100% 30.21 in 7.0 mi Calm Calm - N/A   Unknown
7:35 AM 42.8 °F 42.8 °F 100% 30.22 in 7.0 mi Calm Calm - N/A   Unknown
7:55 AM 42.8 °F 42.8 °F 100% 30.22 in 7.0 mi Calm Calm - N/A   Unknown
8:15 AM 44.6 °F 44.6 °F 100% 30.23 in 5.0 mi Calm Calm - N/A   Unknown
8:35 AM 44.6 °F 44.6 °F 100% 30.23 in 7.0 mi Calm Calm - N/A   Unknown
8:55 AM 44.6 °F 44.6 °F 100% 30.24 in 7.0 mi Calm Calm - N/A   Unknown
9:15 AM 46.4 °F 46.4 °F 100% 30.25 in 10.0 mi Calm Calm - N/A   Unknown
9:35 AM 46.4 °F 46.4 °F 100% 30.25 in 10.0 mi Calm Calm - N/A   Unknown
9:55 AM 48.2 °F 46.4 °F 93% 30.25 in 10.0 mi Calm Calm - N/A   Unknown
10:15 AM 48.2 °F 46.4 °F 93% 30.24 in 10.0 mi West 3.5 mph - N/A   Unknown
10:35 AM 50.0 °F 46.4 °F 87% 30.25 in 10.0 mi WNW 5.8 mph - N/A   Unknown
10:55 AM 51.8 °F 46.4 °F 82% 30.25 in 10.0 mi West 4.6 mph - N/A   Unknown
11:15 AM 50.0 °F 44.6 °F 82% 30.25 in 10.0 mi WNW 5.8 mph - N/A   Unknown
11:35 AM 50.0 °F 44.6 °F 82% 30.24 in 10.0 mi West 3.5 mph - N/A   Unknown
11:55 AM 51.8 °F 44.6 °F 76% 30.24 in 10.0 mi West 8.1 mph - N/A   Unknown
12:15 PM 53.6 °F 42.8 °F 67% 30.24 in 10.0 mi West 4.6 mph - N/A   Unknown
12:35 PM 53.6 °F 42.8 °F 67% 30.23 in 10.0 mi West 8.1 mph - N/A   Unknown
12:55 PM 55.4 °F 42.8 °F 63% 30.23 in 10.0 mi WNW 5.8 mph - N/A   Unknown
1:15 PM 53.6 °F 41.0 °F 62% 30.22 in 10.0 mi West 10.4 mph - N/A   Unknown
1:35 PM 55.4 °F 41.0 °F 58% 30.22 in 10.0 mi West 11.5 mph 16.1 mph N/A   Unknown
1:55 PM 57.2 °F 41.0 °F 55% 30.21 in 10.0 mi West 12.7 mph 16.1 mph N/A   Unknown
2:15 PM 55.4 °F 41.0 °F 58% 30.19 in 10.0 mi SW 11.5 mph - N/A   Unknown
2:35 PM 55.4 °F 41.0 °F 58% 30.19 in 10.0 mi NW 5.8 mph - N/A   Unknown
2:55 PM 55.4 °F 41.0 °F 58% 30.18 in 10.0 mi West 5.8 mph 9.2 mph N/A   Unknown
3:15 PM 55.4 °F 41.0 °F 58% 30.17 in 10.0 mi WNW 5.8 mph - N/A   Unknown
3:35 PM 57.2 °F 41.0 °F 55% 30.16 in 10.0 mi SW 9.2 mph 16.1 mph N/A   Unknown
3:55 PM 57.2 °F 42.8 °F 59% 30.15 in 10.0 mi SW 5.8 mph - N/A   Unknown
4:15 PM 57.2 °F 41.0 °F 55% 30.14 in 10.0 mi West 9.2 mph 17.3 mph N/A   Unknown
4:55 PM 57.2 °F 41.0 °F 55% 30.13 in 10.0 mi WSW 12.7 mph 16.1 mph N/A   Unknown
5:15 PM 57.2 °F 41.0 °F 55% 30.13 in 10.0 mi SW 9.2 mph 17.3 mph N/A   Unknown
5:35 PM 57.2 °F 41.0 °F 55% 30.12 in 10.0 mi WSW 10.4 mph - N/A   Unknown
5:55 PM 57.2 °F 39.2 °F 51% 30.12 in 10.0 mi WSW 9.2 mph - N/A   Unknown
6:15 PM 57.2 °F 39.2 °F 51% 30.11 in 10.0 mi SW 9.2 mph - N/A   Unknown
6:35 PM 55.4 °F 37.4 °F 51% 30.11 in 10.0 mi WSW 6.9 mph - N/A   Unknown
6:55 PM 55.4 °F 39.2 °F 54% 30.11 in 10.0 mi SW 4.6 mph - N/A   Unknown
7:15 PM 53.6 °F 39.2 °F 58% 30.11 in 10.0 mi Calm Calm - N/A   Unknown
7:35 PM 53.6 °F 41.0 °F 62% 30.11 in 10.0 mi Calm Calm - N/A   Unknown
7:55 PM 50.0 °F 42.8 °F 76% 30.11 in 10.0 mi Calm Calm - N/A   Unknown
8:15 PM 48.2 °F 42.8 °F 82% 30.11 in 10.0 mi Calm Calm - N/A   Unknown
8:55 PM 44.6 °F 42.8 °F 93% 30.12 in 10.0 mi Calm Calm - N/A   Unknown
9:15 PM 44.6 °F 42.8 °F 93% 30.11 in 10.0 mi Calm Calm - N/A   Unknown
9:35 PM 44.6 °F 42.8 °F 93% 30.12 in 10.0 mi Calm Calm - N/A   Unknown
9:55 PM 44.6 °F 42.8 °F 93% 30.11 in 10.0 mi Calm Calm - N/A   Unknown
10:15 PM 42.8 °F 42.8 °F 100% 30.11 in 10.0 mi Calm Calm - N/A   Unknown
10:35 PM 42.8 °F 41.0 °F 93% 30.12 in 10.0 mi Calm Calm - N/A   Unknown
10:55 PM 42.8 °F 41.0 °F 93% 30.12 in 10.0 mi Calm Calm - N/A   Unknown
11:15 PM 42.8 °F 41.0 °F 93% 30.12 in 10.0 mi Calm Calm - N/A   Unknown
11:35 PM 42.8 °F 41.0 °F 93% 30.12 in 10.0 mi Calm Calm - N/A   Unknown
11:55 PM 41.0 °F 41.0 °F 100% 30.12 in 10.0 mi Calm Calm - N/A   Unknown